Tracking 19795 objects as of 20-Jul-2019
HD Live streaming from Space Station
objects crossing your sky now

KIKU 1 (ETS 1)

Track KIKU 1 (ETS 1) now!
10-day predictions
KIKU 1 (ETS 1) is classified as:


NORAD ID: 8197
Int'l Code: 1975-082A
Perigee: 980.8 km
Apogee: 1,108.4 km
Inclination: 47.0 °
Period: 105.9 minutes
Semi major axis: 7415 km
RCS: 1.482 m2 (large)
Launch date: September 9, 1975
Source: Japan (JPN)
Launch site: TANEGASHIMA SPACE CENTER (TNSTA)
aabbcc
Your satellite tracking list
Your tracking list is empty




NASA's NSSDC Master Catalog

Two Line Element Set (TLE):
1  8197U 75082A   19200.77565690 -.00000101  00000-0  32612-4 0  9995
2  8197  46.9895 292.2164 0085997 317.8010 195.3407 13.59513015179179
Source of the keplerian elements: AFSPC